Date String (YYYY-MM-DD hh:mm:ss) UTC,Instrument flags,absolute air pressure of the measurement (hPa),sample flow rate (lpm),inlet stack bypass flow (lpm),air temperature of the measurement (°C),ambient temperature measured by the external sensor (°C),aerosol sample conditioner tube jacket temperature (°C),OPC LED temperature (°C),internal box temperature (°C),relative humidity of the measurement (%),span deviation,mass concentration of particles derived from Lorenz-Mie calculation of OPC scattering (μg/m³),mass concentration of particles derived from Lorenz-Mie calculation of OPC scattering (μg/m³),mass concentration of particles derived from Lorenz-Mie calculation of OPC scattering (μg/m³)
DateTimeUTC,F1_M11,P_M11,Q1_M11,Q2_M11,T1_M11,T2_M11,T3_M11,T4_M11,T5_M11,U1_M11,ZSPAN_M11,X0_M11,X2_M11,X1_M11
2023-12-04 16:00:00,SystemResetWarning,0826.6,5.01,000.00,019.3,018.6,000.0,027.6,020.5,15.3,0000.0,0002.07,0000.22,0000.10
2023-12-04 16:01:00,SystemResetWarning,0826.7,5.00,000.00,019.3,018.6,000.0,027.6,020.5,15.4,0000.0,0002.64,0000.26,0000.11
2023-12-04 16:02:00,SystemResetWarning,0826.6,5.00,000.00,019.3,018.6,000.0,027.6,020.5,15.5,0000.0,0002.67,0000.25,0000.11
2023-12-04 16:03:00,SystemResetWarning,0826.7,4.99,000.00,019.3,018.6,000.0,027.6,020.5,15.7,0000.0,0002.69,0000.24,0000.11
2023-12-04 16:04:00,SystemResetWarning,0827.1,5.00,000.00,019.3,018.6,000.0,027.6,020.5,15.4,0000.0,0002.74,0000.25,0000.12
2023-12-04 16:05:00,SystemResetWarning,0827.1,5.00,000.00,019.3,018.6,000.0,027.6,020.5,15.6,0000.0,0002.74,0000.26,0000.12
2023-12-04 16:06:00,SystemResetWarning,0827.0,5.00,000.00,019.3,018.6,000.0,027.6,020.5,15.6,0000.0,0001.96,0000.27,0000.12
2023-12-04 16:07:00,SystemResetWarning,0827.1,5.00,000.00,019.3,018.6,000.0,027.6,020.5,15.4,0000.0,0002.06,0000.31,0000.12
2023-12-04 16:08:00,SystemResetWarning,0827.2,5.01,000.00,019.3,018.6,000.0,027.6,020.5,15.5,0000.0,0002.12,0000.33,0000.12
2023-12-04 16:09:00,SystemResetWarning,0827.1,5.00,000.00,019.3,018.6,000.0,027.6,020.5,15.4,0000.0,0002.15,0000.33,0000.12
2023-12-04 16:10:00,SystemResetWarning,0827.1,4.99,000.00,019.3,018.6,000.0,027.6,020.5,15.5,0000.0,0001.50,0000.32,0000.12
2023-12-04 16:11:00,SystemResetWarning,0827.3,4.99,000.00,019.3,018.6,000.0,027.6,020.5,15.7,0000.0,0001.39,0000.32,0000.12
2023-12-04 16:12:00,SystemResetWarning,0827.5,4.99,000.00,019.3,018.6,000.0,027.6,020.5,15.9,0000.0,0000.81,0000.31,0000.12
2023-12-04 16:13:00,SystemResetWarning,0827.4,5.00,000.00,019.3,018.6,000.0,027.6,020.5,15.9,0000.0,0001.00,0000.34,0000.12
2023-12-04 16:14:00,SystemResetWarning,0827.4,5.00,000.00,019.3,018.6,000.0,027.6,020.5,15.8,0000.0,0001.50,0000.37,0000.12
2023-12-04 16:15:00,SystemResetWarning,0827.4,5.00,000.00,019.3,018.6,000.0,027.6,020.5,15.6,0000.0,0001.73,0000.42,0000.12
2023-12-04 16:16:00,SystemResetWarning,0827.4,5.00,000.00,019.3,018.6,000.0,027.6,020.5,15.7,0000.0,0003.10,0000.46,0000.12
2023-12-04 16:17:00,SystemResetWarning,0827.4,5.00,000.00,019.3,018.6,000.0,027.6,020.5,15.9,0000.0,0003.53,0000.47,0000.12
2023-12-04 16:18:00,SystemResetWarning,0827.5,5.00,000.00,019.3,018.6,000.0,027.6,020.5,15.9,0000.0,0003.84,0000.47,0000.12
2023-12-04 16:19:00,SystemResetWarning,0827.5,5.01,000.00,019.3,018.6,000.0,027.6,020.5,16.0,0000.0,0003.96,0000.50,0000.12
2023-12-04 16:20:00,SystemResetWarning,0827.7,5.00,000.00,019.3,018.6,000.0,027.6,020.5,16.3,0000.0,0004.04,0000.54,0000.12
2023-12-04 16:21:00,SystemResetWarning,0827.6,4.98,000.00,019.3,018.6,000.0,027.6,020.5,16.1,0000.0,0004.05,0000.55,0000.11
2023-12-04 16:22:00,SystemResetWarning,0827.7,5.01,000.00,019.3,018.6,000.0,027.6,020.5,15.9,0000.0,0004.02,0000.53,0000.11
2023-12-04 16:23:00,SystemResetWarning,0827.7,5.01,000.00,019.3,018.6,000.0,027.6,020.5,16.1,0000.0,0003.99,0000.51,0000.12
2023-12-04 16:24:00,SystemResetWarning,0827.5,5.00,000.00,019.3,018.6,000.0,027.6,020.5,16.0,0000.0,0003.78,0000.47,0000.12
2023-12-04 16:25:00,SystemResetWarning,0827.5,5.00,000.00,019.3,018.6,000.0,027.6,020.5,16.1,0000.0,0003.24,0000.44,0000.11
2023-12-04 16:26:00,SystemResetWarning,0827.5,5.00,000.00,019.3,018.6,000.0,027.6,020.5,16.2,0000.0,0003.01,0000.40,0000.11
2023-12-04 16:27:00,SystemResetWarning,0827.7,4.99,000.00,019.3,018.6,000.0,027.6,020.6,16.1,0000.0,0001.86,0000.37,0000.10
2023-12-04 16:28:00,SystemResetWarning,0827.5,5.00,000.00,019.3,018.6,000.0,027.6,020.6,16.2,0000.0,0001.34,0000.39,0000.10
2023-12-04 16:29:00,SystemResetWarning,0827.5,5.01,000.00,019.3,018.6,000.0,027.6,020.6,16.2,0000.0,0000.90,0000.36,0000.10
2023-12-04 16:30:00,SystemResetWarning,0827.6,5.01,000.00,019.3,018.6,000.0,027.7,020.5,16.2,0000.0,0000.78,0000.33,0000.10
2023-12-04 16:31:00,SystemResetWarning,0827.3,5.00,000.00,019.3,018.6,000.0,027.7,020.5,16.2,0000.0,0000.65,0000.29,0000.10
2023-12-04 16:32:00,SystemResetWarning,0827.2,4.99,000.00,019.3,018.6,000.0,027.7,020.5,16.2,0000.0,0000.61,0000.29,0000.10
2023-12-04 16:33:00,SystemResetWarning,0827.4,4.99,000.00,019.3,018.6,000.0,027.7,020.5,16.2,0000.0,0000.64,0000.31,0000.11
2023-12-04 16:34:00,SystemResetWarning,0827.3,5.01,000.00,019.3,018.6,000.0,027.7,020.5,16.5,0000.0,0000.63,0000.30,0000.10
2023-12-04 16:35:00,SystemResetWarning,0827.1,5.00,000.00,019.3,018.6,000.0,027.7,020.5,16.5,0000.0,0000.65,0000.31,0000.10
2023-12-04 16:36:00,SystemResetWarning,0826.9,5.00,000.00,019.3,018.6,000.0,027.7,020.6,16.5,0000.0,0000.65,0000.31,0000.10
2023-12-04 16:37:00,SystemResetWarning,0827.0,5.01,000.00,019.3,018.6,000.0,027.7,020.5,15.8,0000.0,0000.62,0000.31,0000.11
2023-12-04 16:38:00,SystemResetWarning,0827.0,4.99,000.00,019.3,018.6,000.0,027.7,020.5,15.6,0000.0,0000.57,0000.30,0000.11
2023-12-04 16:39:00,SystemResetWarning,0826.9,5.00,000.00,019.3,018.6,000.0,027.7,020.5,16.3,0000.0,0000.52,0000.27,0000.11
2023-12-04 16:40:00,SystemResetWarning,0826.9,4.99,000.00,019.3,018.6,000.0,027.7,020.5,16.4,0000.0,0000.55,0000.29,0000.11
2023-12-04 16:41:00,SystemResetWarning,0827.0,5.01,000.00,019.3,018.6,000.0,027.7,020.5,15.9,0000.0,0000.52,0000.27,0000.11
2023-12-04 16:42:00,SystemResetWarning,0827.1,5.01,000.00,019.3,018.5,000.0,027.7,020.5,16.0,0000.0,0000.50,0000.26,0000.11
2023-12-04 16:43:00,SystemResetWarning,0827.1,5.00,000.00,019.3,018.5,000.0,027.7,020.5,16.6,0000.0,0000.46,0000.25,0000.11
2023-12-04 16:44:00,SystemResetWarning,0827.1,5.00,000.00,019.3,018.5,000.0,027.7,020.5,16.7,0000.0,0002.89,0000.27,0000.11
2023-12-04 16:45:00,SystemResetWarning,0827.1,4.99,000.00,019.3,018.5,000.0,027.6,020.5,16.6,0000.0,0006.37,0000.32,0000.11
2023-12-04 16:46:00,SystemResetWarning,0827.2,5.00,000.00,019.3,018.5,000.0,027.6,020.5,16.5,0000.0,0006.37,0000.32,0000.11
2023-12-04 16:47:00,SystemResetWarning,0827.2,5.00,000.00,019.3,018.5,000.0,027.6,020.5,16.5,0000.0,0006.37,0000.33,0000.11
2023-12-04 16:48:00,SystemResetWarning,0827.2,5.00,000.00,019.3,018.5,000.0,027.6,020.5,16.6,0000.0,0006.78,0000.33,0000.11
2023-12-04 16:49:00,SystemResetWarning,0827.3,5.00,000.00,019.3,018.5,000.0,027.7,020.5,16.6,0000.0,0007.11,0000.35,0000.11
2023-12-04 16:50:00,SystemResetWarning,0827.3,5.01,000.00,019.3,018.5,000.0,027.7,020.5,16.5,0000.0,0007.08,0000.33,0000.11
2023-12-04 16:51:00,SystemResetWarning,0827.4,5.00,000.00,019.3,018.6,000.0,027.7,020.5,16.5,0000.0,0007.06,0000.32,0000.11
2023-12-04 16:52:00,SystemResetWarning,0827.4,4.99,000.00,019.3,018.6,000.0,027.7,020.5,16.4,0000.0,0007.08,0000.33,0000.11
2023-12-04 16:53:00,SystemResetWarning,0827.2,4.99,000.00,019.3,018.6,000.0,027.7,020.5,16.2,0000.0,0007.34,0000.35,0000.11
2023-12-04 16:54:00,SystemResetWarning,0827.3,4.99,000.00,019.3,018.6,000.0,027.6,020.5,15.9,0000.0,0008.16,0000.36,0000.12
2023-12-04 16:55:00,SystemResetWarning,0827.2,5.01,000.00,019.3,018.6,000.0,027.6,020.6,16.1,0000.0,0007.63,0000.36,0000.12
2023-12-04 16:56:00,SystemResetWarning,0827.1,5.00,000.00,019.4,018.6,000.0,027.6,020.6,16.2,0000.0,0004.54,0000.29,0000.12
2023-12-04 16:57:00,SystemResetWarning,0827.1,5.01,000.00,019.4,018.6,000.0,027.6,020.6,16.2,0000.0,0004.62,0000.29,0000.11
2023-12-04 16:58:00,SystemResetWarning,0827.1,5.00,000.00,019.4,018.6,000.0,027.7,020.6,16.5,0000.0,0004.71,0000.32,0000.11
2023-12-04 16:59:00,SystemResetWarning,0827.1,5.00,000.00,019.4,018.6,000.0,027.7,020.6,16.1,0000.0,0004.54,0000.33,0000.11
